Location: Molveno
(46.1500°N, 10.9667°E)
Time: 16:42:02
(UTC+00:00)

CZ-4C R/B - Pass Details

Date: 05 July 2020
Orbit: 632 x 1370 km, 63.4° (Epoch: 10 August)

Event Time Altitude Azimuth Distance (km) Brightness Sun altitude
Rises 23:25:26 0° 321° (NW) 3,755 6.3 -21.2°
Reaches altitude 10° 23:27:56 10° 326° (NW) 2,904 5.7 -21.2°
Maximum altitude 23:34:54 59° 45° (NE) 1,378 3.4 -21.1°
Drops below altitude 10° 23:42:58 10° 124° (SE) 3,346 5.0 -21.0°
Enters shadow 23:45:20 - 127° (SE) 4,130 5.5 -21.0°
